Location: Clanezzo
(45.7500°N, 9.6000°E)
Time: 07:53:06
(UTC+00:00)

Cosmos 773 Rocket - Pass Details

Date: 29 September 2021
Orbit: 745 x 777 km, 74.1° (Epoch: 15 October)

Event Time Altitude Azimuth Distance (km) Brightness Sun altitude
Rises 17:48:03 0° 336° (NNW) 3,250 7.7 -8.3°
Reaches altitude 10° 17:50:26 10° 334° (NNW) 2,323 6.9 -8.7°
Maximum altitude 17:55:41 69° 252° (WSW) 829 4.4 -9.6°
Drops below altitude 10° 18:00:55 10° 170° (S) 2,319 6.3 -10.5°
Sets 18:03:18 0° 168° (SSE) 3,243 7.0 -10.9°
